Location: Curupao
(10.4996°N, 66.6442°W)
Time: 11:59:28
(UTC+00:00)

NOAA 12 - Pass Details

Date: 23 May 2024
Orbit: 794 x 814 km, 98.6° (Epoch: 20 June)

Event Time Altitude Azimuth Distance (km) Brightness Sun altitude
Rises 09:36:32 0° 6° (N) 3,295 7.7 -7.0°
Reaches altitude 10° 09:38:52 10° 4° (N) 2,368 6.9 -6.5°
Maximum altitude 09:44:02 64° 283° (WNW) 885 4.2 -5.3°
Drops below altitude 10° 09:49:14 10° 202° (SSW) 2,382 6.2 -4.1°
Sets 09:51:36 0° 199° (SSW) 3,316 6.9 -3.6°
